| time (UTC) | temp C | wind direction | speed KPH | gust KPH | rain 1hr cm | rain 24hr cm | rain mn cm | humidity % | barometer mb |
| 20260509021602 | 13 | 0 | 0.0 | 1.6 | 0.00 | 0.00 | 0.00 | 90 | 1016.3 |
| 20260509014617 | 13 | 0 | 0.0 | 0.0 | 0.00 | 0.00 | 0.00 | 90 | 1016.3 |
| 20260509013110 | 14 | 0 | 0.0 | 1.6 | 0.00 | 0.00 | 0.00 | 89 | 1016.1 |
| 20260509011605 | 14 | 0 | 0.0 | 0.0 | 0.00 | 0.00 | 0.00 | 88 | 1015.8 |
| 20260509004607 | 15 | 0 | 0.0 | 0.0 | 0.00 | 0.00 | 0.00 | 86 | 1015.9 |
| 20260509003133 | 15 | 0 | 0.0 | 3.2 | 0.00 | 0.00 | 0.00 | 85 | 1015.7 |
| 20260509001606 | 15 | 0 | 0.0 | 1.6 | 0.00 | 0.00 | 0.00 | 83 | 1015.6 |
| 20260509000113 | 16 | 0 | 0.0 | 1.6 | 0.00 | 0.00 | 0.00 | 81 | 1015.6 |
| 20260508234557 | 17 | 0 | 0.0 | 3.2 | 0.00 | 0.00 | 0.00 | 78 | 1015.5 |
| 20260508233100 | 17 | 167 | 0.0 | 6.4 | 0.00 | 0.00 | 0.00 | 70 | 1015.4 |
| 20260508231558 | 18 | 155 | 1.6 | 4.8 | 0.00 | 0.00 | 0.00 | 70 | 1015.4 |
| 20260508224606 | 18 | 165 | 0.0 | 6.4 | 0.00 | 0.00 | 0.00 | 69 | 1015.4 |
| 20260508223058 | 18 | 0 | 0.0 | 4.8 | 0.00 | 0.00 | 0.00 | 66 | 1015.5 |
| 20260508221600 | 18 | 171 | 0.0 | 6.4 | 0.00 | 0.00 | 0.00 | 65 | 1015.5 |
| 20260508220100 | 19 | 0 | 0.0 | 6.4 | 0.00 | 0.00 | 0.00 | 63 | 1015.4 |
| 20260508214558 | 19 | 0 | 0.0 | 8.0 | 0.00 | 0.00 | 0.00 | 63 | 1015.3 |
| 20260508213103 | 19 | 151 | 0.0 | 8.0 | 0.00 | 0.00 | 0.00 | 59 | 1015.3 |
| 20260508211559 | 19 | 198 | 3.2 | 12.9 | 0.00 | 0.00 | 0.00 | 57 | 1015.6 |
| 20260508210058 | 20 | 0 | 3.2 | 8.0 | 0.00 | 0.00 | 0.00 | 56 | 1015.5 |
| 20260508204556 | 20 | 156 | 1.6 | 9.7 | 0.00 | 0.00 | 0.00 | 58 | 1015.4 |
| 20260508203102 | 20 | 160 | 1.6 | 9.7 | 0.00 | 0.00 | 0.00 | 56 | 1015.4 |
| 20260508201612 | 20 | 172 | 4.8 | 9.7 | 0.00 | 0.00 | 0.00 | 56 | 1015.6 |
| 20260508200108 | 20 | 166 | 1.6 | 9.7 | 0.00 | 0.00 | 0.00 | 57 | 1015.8 |
| 20260508194601 | 20 | 163 | 4.8 | 12.9 | 0.00 | 0.00 | 0.00 | 55 | 1016.0 |
| 20260508193109 | 20 | 199 | 1.6 | 9.7 | 0.00 | 0.00 | 0.00 | 55 | 1016.3 |
| 20260508191557 | 19 | 165 | 4.8 | 14.5 | 0.00 | 0.00 | 0.00 | 55 | 1016.6 |
| 20260508190101 | 20 | 203 | 1.6 | 11.3 | 0.00 | 0.00 | 0.00 | 55 | 1016.6 |
| 20260508184610 | 20 | 160 | 1.6 | 16.1 | 0.00 | 0.00 | 0.00 | 56 | 1017.1 |
| 20260508183107 | 20 | 173 | 1.6 | 11.3 | 0.00 | 0.00 | 0.00 | 55 | 1017.0 |
| 20260508181600 | 20 | 180 | 1.6 | 8.0 | 0.00 | 0.00 | 0.00 | 56 | 1017.4 |
| 20260508180100 | 20 | 165 | 1.6 | 12.9 | 0.00 | 0.00 | 0.00 | 56 | 1017.5 |
| 20260508174605 | 20 | 0 | 3.2 | 14.5 | 0.00 | 0.00 | 0.00 | 59 | 1017.9 |
| 20260508173057 | 19 | 182 | 3.2 | 12.9 | 0.00 | 0.00 | 0.00 | 54 | 1017.8 |
| 20260508171600 | 19 | 167 | 3.2 | 11.3 | 0.00 | 0.00 | 0.00 | 56 | 1017.8 |
| 20260508170058 | 19 | 173 | 3.2 | 8.0 | 0.00 | 0.00 | 0.00 | 55 | 1017.8 |
| 20260508164604 | 20 | 164 | 3.2 | 11.3 | 0.00 | 0.00 | 0.00 | 55 | 1018.4 |
| 20260508163117 | 19 | 195 | 3.2 | 17.7 | 0.00 | 0.00 | 0.00 | 53 | 1018.6 |
| 20260508161558 | 18 | 192 | 0.0 | 14.5 | 0.00 | 0.00 | 0.00 | 54 | 1018.9 |
| 20260508160056 | 17 | 236 | 3.2 | 11.3 | 0.00 | 0.00 | 0.00 | 57 | 1019.1 |
| 20260508154600 | 17 | 256 | 1.6 | 11.3 | 0.00 | 0.00 | 0.00 | 58 | 1019.2 |
| 20260508153057 | 17 | 0 | 3.2 | 9.7 | 0.00 | 0.00 | 0.00 | 57 | 1019.4 |
| 20260508151559 | 17 | 0 | 0.0 | 8.0 | 0.00 | 0.00 | 0.00 | 58 | 1019.5 |
| 20260508150105 | 16 | 171 | 4.8 | 11.3 | 0.00 | 0.00 | 0.00 | 57 | 1019.4 |
| 20260508144602 | 16 | 160 | 0.0 | 6.4 | 0.00 | 0.00 | 0.00 | 60 | 1019.5 |
| 20260508143055 | 15 | 0 | 3.2 | 8.0 | 0.00 | 0.00 | 0.00 | 64 | 1019.6 |
| 20260508141601 | 15 | 164 | 1.6 | 6.4 | 0.00 | 0.00 | 0.00 | 65 | 1019.5 |
| 20260508140058 | 15 | 186 | 0.0 | 6.4 | 0.00 | 0.00 | 0.00 | 67 | 1019.7 |
| 20260508134602 | 15 | 259 | 1.6 | 4.8 | 0.00 | 0.00 | 0.00 | 62 | 1019.9 |
| 20260508133103 | 14 | 0 | 1.6 | 4.8 | 0.00 | 0.00 | 0.00 | 66 | 1019.8 |
| 20260508131559 | 13 | 298 | 0.0 | 4.8 | 0.00 | 0.00 | 0.00 | 72 | 1019.8 |
| 20260508130110 | 13 | 311 | 0.0 | 3.2 | 0.00 | 0.00 | 0.00 | 76 | 1019.7 |
| 20260508124558 | 12 | 0 | 0.0 | 1.6 | 0.00 | 0.00 | 0.00 | 85 | 1019.5 |
| 20260508123057 | 11 | 0 | 0.0 | 0.0 | 0.00 | 0.00 | 0.00 | 89 | 1019.3 |
| 20260508121557 | 10 | 0 | 0.0 | 0.0 | 0.00 | 0.00 | 0.00 | 91 | 1019.2 |
| 20260508114558 | 8 | 0 | 0.0 | 0.0 | 0.00 | 0.00 | 0.00 | 94 | 1018.8 |
| 20260508113059 | 8 | 0 | 0.0 | 0.0 | 0.00 | 0.00 | 0.00 | 94 | 1018.6 |
| 20260508111558 | 7 | 0 | 0.0 | 0.0 | 0.00 | 0.00 | 0.00 | 93 | 1018.2 |
| 20260508110128 | 7 | 0 | 0.0 | 0.0 | 0.00 | 0.00 | 0.00 | 93 | 1017.7 |
| 20260508104603 | 7 | 0 | 0.0 | 3.2 | 0.00 | 0.00 | 0.00 | 93 | 1017.7 |
| 20260508103058 | 7 | 0 | 0.0 | 1.6 | 0.00 | 0.00 | 0.00 | 94 | 1017.2 |
| 20260508101557 | 8 | 0 | 0.0 | 4.8 | 0.00 | 0.00 | 0.00 | 93 | 1017.3 |
| 20260508100059 | 7 | 0 | 0.0 | 0.0 | 0.00 | 0.00 | 0.00 | 94 | 1017.0 |
| 20260508094558 | 7 | 0 | 0.0 | 0.0 | 0.00 | 0.00 | 0.00 | 93 | 1016.6 |
| 20260508093106 | 8 | 0 | 0.0 | 0.0 | 0.00 | 0.00 | 0.00 | 93 | 1016.5 |
| 20260508091558 | 8 | 0 | 0.0 | 0.0 | 0.00 | 0.00 | 0.00 | 93 | 1016.4 |
| 20260508090109 | 8 | 0 | 0.0 | 0.0 | 0.00 | 0.00 | 0.00 | 93 | 1016.4 |
| 20260508084601 | 8 | 305 | 0.0 | 3.2 | 0.00 | 0.00 | 0.00 | 93 | 1016.1 |
| 20260508083056 | 8 | 0 | 0.0 | 3.2 | 0.00 | 0.00 | 0.00 | 92 | 1016.4 |
| 20260508081616 | 8 | 0 | 0.0 | 0.0 | 0.00 | 0.00 | 0.00 | 92 | 1016.2 |
| 20260508080058 | 8 | 0 | 0.0 | 3.2 | 0.00 | 0.00 | 0.00 | 92 | 1016.1 |
| 20260508074558 | 8 | 0 | 0.0 | 0.0 | 0.00 | 0.00 | 0.00 | 91 | 1016.2 |
| 20260508073058 | 9 | 0 | 0.0 | 0.0 | 0.00 | 0.00 | 0.00 | 91 | 1016.2 |
| 20260508071559 | 9 | 0 | 0.0 | 0.0 | 0.00 | 0.00 | 0.00 | 92 | 1016.1 |
| 20260508070108 | 9 | 0 | 0.0 | 3.2 | 0.00 | 0.00 | 0.00 | 91 | 1016.0 |
| 20260508064600 | 9 | 305 | 1.6 | 4.8 | 0.00 | 0.00 | 0.00 | 92 | 1015.9 |
| 20260508063110 | 9 | 0 | 0.0 | 0.0 | 0.00 | 0.00 | 0.00 | 92 | 1015.9 |
| 20260508061608 | 9 | 0 | 0.0 | 0.0 | 0.00 | 0.00 | 0.00 | 92 | 1015.9 |
| 20260508060108 | 10 | 0 | 0.0 | 0.0 | 0.00 | 0.00 | 0.00 | 91 | 1015.9 |
| 20260508054640 | 10 | 0 | 0.0 | 3.2 | 0.00 | 0.00 | 0.00 | 90 | 1015.8 |
| 20260508053108 | 10 | 0 | 0.0 | 4.8 | 0.00 | 0.00 | 0.00 | 90 | 1015.8 |
| 20260508051559 | 10 | 0 | 0.0 | 0.0 | 0.00 | 0.00 | 0.00 | 89 | 1016.0 |
| 20260508050059 | 10 | 0 | 0.0 | 0.0 | 0.00 | 0.00 | 0.00 | 88 | 1015.6 |
| 20260508044603 | 11 | 0 | 0.0 | 0.0 | 0.00 | 0.00 | 0.00 | 86 | 1015.8 |
| 20260508043058 | 11 | 0 | 0.0 | 1.6 | 0.00 | 0.00 | 0.00 | 84 | 1015.5 |
| 20260508041602 | 12 | 282 | 0.0 | 3.2 | 0.00 | 0.00 | 0.00 | 84 | 1015.5 |
| 20260508040109 | 12 | 0 | 0.0 | 0.0 | 0.00 | 0.00 | 0.00 | 83 | 1015.4 |
| 20260508034605 | 12 | 0 | 0.0 | 4.8 | 0.00 | 0.00 | 0.00 | 82 | 1015.2 |
| 20260508033101 | 13 | 0 | 0.0 | 3.2 | 0.00 | 0.00 | 0.00 | 80 | 1015.4 |
| 20260508031605 | 13 | 0 | 0.0 | 3.2 | 0.00 | 0.00 | 0.00 | 79 | 1015.2 |
| 20260508030115 | 13 | 321 | 0.0 | 4.8 | 0.00 | 0.00 | 0.00 | 78 | 1015.0 |
| 20260508024607 | 14 | 327 | 1.6 | 4.8 | 0.00 | 0.00 | 0.00 | 77 | 1014.9 |
| 20260508023103 | 14 | 325 | 1.6 | 6.4 | 0.00 | 0.00 | 0.00 | 73 | 1015.1 |